Location: Ahausen
(50.4985°N, 8.2722°E)
Time: 07:25:55
(UTC+00:00)

Cosmos 2298 Rocket - Pass Details

Date: 18 September 2020
Orbit: 776 x 783 km, 74.0° (Epoch: 21 October)

Event Time Altitude Azimuth Distance (km) Brightness Sun altitude
Rises 19:58:14 0° 212° (SSW) 3,261 7.3 -22.6°
Reaches altitude 10° 20:00:39 10° 216° (SW) 2,336 6.5 -22.9°
Maximum altitude 20:05:55 64° 297° (WNW) 869 4.4 -23.6°
Drops below altitude 10° 20:11:14 10° 20° (NNE) 2,351 6.7 -24.3°
Sets 20:13:40 0° 23° (NNE) 3,282 7.4 -24.6°
